Simultaneous Nadir Overpasses (SNOs) Predictions

Prediction of SNOs between NOAA-19 and NPP Satellite Orbit:

Table of predicted SNOs for the next 14.0 days since TLE Epoch: 10/13/2018
Index Date (NOAA-19) Time (NOAA-19) Lat,Lon (NOAA-19) SZA (NOAA-19 ) Date (NPP) Time (NPP) Lat,Lon (NPP) SZA (NPP ) Distance(km) Time Diff (sec)
1 10/13/2018 22:20:50 -80.42, -18.55 89.41 10/13/2018 22:21:59 -80.42, -18.66 89.43 2.11 69
2 10/13/2018 23:11:45 80.41, 148.67 90.61 10/13/2018 23:12:44 80.41, 148.77 90.57 1.83 59
3 10/14/2018 00:02:51 -80.42, -44.04 89.39 10/14/2018 00:03:29 -80.42, -44.07 89.40 1.04 38
4 10/14/2018 00:53:46 80.41, 123.19 90.63 10/14/2018 00:54:14 80.42, 123.36 90.60 3.27 28
5 10/14/2018 01:44:52 -80.42, -69.53 89.36 10/14/2018 01:44:59 -80.43, -69.48 89.36 1.45 7
6 10/14/2018 02:35:46 80.43, 98.04 90.64 10/14/2018 02:35:44 80.42, 97.95 90.63 2.25 2
7 10/14/2018 03:26:53 -80.42, -95.02 89.34 10/14/2018 03:26:29 -80.43, -94.89 89.33 2.74 24
8 10/14/2018 04:17:47 80.43, 72.55 90.66 10/14/2018 04:17:14 80.42, 72.54 90.67 1.39 33
9 10/14/2018 05:08:53 -80.44,-120.17 89.34 10/14/2018 05:07:59 -80.43,-120.30 89.30 2.44 54




NCC Satellite Simultaneous Nadir Overpasses (SNOs) Prediction Service
